TimeEST,TemperatureF,Dew PointF,Humidity,Sea Level PressureIn,VisibilityMPH,Wind Direction,Wind SpeedMPH,Gust SpeedMPH,PrecipitationIn,Events,Conditions,WindDirDegrees,DateUTC
12:15 AM,33.8,28.4,81,30.01,10.0,WSW,8.1,-,N/A,,Clear,240,2013-03-04 05:15:00
12:35 AM,33.8,28.4,81,30.01,10.0,WSW,8.1,-,N/A,,Clear,240,2013-03-04 05:35:00
12:55 AM,33.8,28.4,81,30.01,10.0,WSW,8.1,-,N/A,,Clear,240,2013-03-04 05:55:00
1:15 AM,33.8,28.4,81,30.02,10.0,West,6.9,-,N/A,,Clear,260,2013-03-04 06:15:00
1:35 AM,33.8,28.4,81,30.02,10.0,West,6.9,-,N/A,,Clear,270,2013-03-04 06:35:00
1:55 AM,33.8,28.4,81,30.02,10.0,West,6.9,-,N/A,,Clear,280,2013-03-04 06:55:00
2:15 AM,32.0,28.4,87,30.03,10.0,WNW,5.8,-,N/A,,Clear,290,2013-03-04 07:15:00
2:55 AM,32.0,28.4,87,30.03,10.0,NW,5.8,-,N/A,,Clear,310,2013-03-04 07:55:00
3:15 AM,32.0,28.4,87,30.05,10.0,NW,5.8,-,N/A,,Clear,320,2013-03-04 08:15:00
3:35 AM,32.0,26.6,80,30.05,10.0,NNW,6.9,-,N/A,,Clear,340,2013-03-04 08:35:00
3:55 AM,32.0,26.6,80,30.06,10.0,NNW,6.9,-,N/A,,Clear,330,2013-03-04 08:55:00
4:15 AM,32.0,26.6,80,30.07,10.0,NW,5.8,-,N/A,,Clear,320,2013-03-04 09:15:00
4:35 AM,32.0,26.6,80,30.08,10.0,NNW,5.8,-,N/A,,Clear,330,2013-03-04 09:35:00
4:55 AM,30.2,26.6,86,30.08,10.0,NNW,5.8,-,N/A,,Clear,330,2013-03-04 09:55:00
5:15 AM,30.2,24.8,80,30.10,10.0,NW,4.6,-,N/A,,Clear,320,2013-03-04 10:15:00
5:35 AM,30.2,24.8,80,30.11,10.0,NW,4.6,-,N/A,,Clear,310,2013-03-04 10:35:00
5:55 AM,30.2,24.8,80,30.12,10.0,WNW,4.6,-,N/A,,Clear,290,2013-03-04 10:55:00
6:15 AM,30.2,24.8,80,30.13,10.0,WNW,3.5,-,N/A,,Clear,300,2013-03-04 11:15:00
6:35 AM,30.2,24.8,80,30.13,10.0,NW,3.5,-,N/A,,Clear,310,2013-03-04 11:35:00
6:55 AM,30.2,23.0,75,30.14,10.0,Calm,Calm,-,N/A,,Clear,0,2013-03-04 11:55:00
7:15 AM,30.2,24.8,80,30.15,10.0,Calm,Calm,-,N/A,,Clear,0,2013-03-04 12:15:00
7:35 AM,32.0,24.8,75,30.15,10.0,NW,4.6,-,N/A,,Clear,320,2013-03-04 12:35:00
7:55 AM,32.0,24.8,75,30.16,10.0,NW,3.5,-,N/A,,Clear,320,2013-03-04 12:55:00
8:15 AM,33.8,24.8,70,30.17,10.0,NW,5.8,-,N/A,,Clear,310,2013-03-04 13:15:00
8:55 AM,37.4,21.2,52,30.17,10.0,NW,6.9,-,N/A,,Clear,320,2013-03-04 13:55:00
9:15 AM,37.4,21.2,52,30.17,10.0,NNW,10.4,-,N/A,,Clear,330,2013-03-04 14:15:00
9:35 AM,41.0,21.2,45,30.16,10.0,NNW,10.4,17.3,N/A,,Clear,330,2013-03-04 14:35:00
9:55 AM,41.0,21.2,45,30.17,10.0,NNW,12.7,18.4,N/A,,Clear,340,2013-03-04 14:55:00
10:15 AM,41.0,21.2,45,30.17,10.0,WNW,11.5,16.1,N/A,,Clear,300,2013-03-04 15:15:00
10:35 AM,42.8,21.2,42,30.17,10.0,NW,12.7,21.9,N/A,,Clear,320,2013-03-04 15:35:00
10:55 AM,42.8,21.2,42,30.17,10.0,NW,13.8,21.9,N/A,,Clear,320,2013-03-04 15:55:00
11:15 AM,44.6,21.2,39,30.17,10.0,WNW,9.2,-,N/A,,Clear,300,2013-03-04 16:15:00
11:35 AM,44.6,23.0,43,30.16,10.0,NW,12.7,18.4,N/A,,Clear,310,2013-03-04 16:35:00
11:55 AM,46.4,23.0,40,30.15,10.0,WNW,15.0,-,N/A,,Clear,290,2013-03-04 16:55:00
12:15 PM,46.4,21.2,37,30.14,10.0,NW,13.8,18.4,N/A,,Clear,320,2013-03-04 17:15:00
12:35 PM,48.2,23.0,37,30.13,10.0,WNW,15.0,20.7,N/A,,Clear,290,2013-03-04 17:35:00
12:55 PM,50.0,23.0,35,30.12,10.0,West,12.7,19.6,N/A,,Clear,270,2013-03-04 17:55:00
1:15 PM,50.0,23.0,35,30.11,10.0,WNW,12.7,17.3,N/A,,Clear,290,2013-03-04 18:15:00
1:35 PM,50.0,21.2,32,30.10,10.0,WNW,12.7,19.6,N/A,,Clear,300,2013-03-04 18:35:00
1:55 PM,51.8,21.2,30,30.09,10.0,WNW,12.7,17.3,N/A,,Clear,300,2013-03-04 18:55:00
2:15 PM,51.8,21.2,30,30.08,10.0,WNW,9.2,18.4,N/A,,Clear,290,2013-03-04 19:15:00
2:35 PM,51.8,21.2,30,30.08,10.0,NNW,8.1,-,N/A,,Clear,330,2013-03-04 19:35:00
2:55 PM,53.6,23.0,30,30.08,10.0,NW,11.5,-,N/A,,Clear,320,2013-03-04 19:55:00
3:15 PM,53.6,23.0,30,30.08,10.0,West,9.2,16.1,N/A,,Clear,270,2013-03-04 20:15:00
3:35 PM,53.6,21.2,28,30.09,10.0,West,9.2,-,N/A,,Clear,280,2013-03-04 20:35:00
3:55 PM,53.6,21.2,28,30.09,10.0,WNW,6.9,-,N/A,,Clear,300,2013-03-04 20:55:00
4:15 PM,53.6,21.2,28,30.08,10.0,West,10.4,-,N/A,,Clear,260,2013-03-04 21:15:00
4:35 PM,53.6,21.2,28,30.08,10.0,NW,8.1,-,N/A,,Clear,310,2013-03-04 21:35:00
4:55 PM,53.6,23.0,30,30.09,10.0,WNW,5.8,-,N/A,,Clear,290,2013-03-04 21:55:00
5:15 PM,53.6,21.2,28,30.09,10.0,West,6.9,-,N/A,,Clear,270,2013-03-04 22:15:00
5:35 PM,51.8,23.0,33,30.09,10.0,West,5.8,-,N/A,,Clear,270,2013-03-04 22:35:00
5:55 PM,50.0,23.0,35,30.10,10.0,West,3.5,-,N/A,,Clear,270,2013-03-04 22:55:00
6:15 PM,46.4,28.4,50,30.11,10.0,SW,4.6,-,N/A,,Clear,230,2013-03-04 23:15:00
6:35 PM,44.6,28.4,53,30.11,10.0,WSW,3.5,-,N/A,,Clear,240,2013-03-04 23:35:00
6:55 PM,41.0,30.2,65,30.11,10.0,SSW,3.5,-,N/A,,Clear,210,2013-03-04 23:55:00
7:15 PM,41.0,32.0,70,30.12,10.0,SSW,3.5,-,N/A,,Clear,210,2013-03-05 00:15:00
7:35 PM,37.4,32.0,81,30.12,10.0,Calm,Calm,-,N/A,,Clear,0,2013-03-05 00:35:00
7:55 PM,35.6,32.0,87,30.13,10.0,SSW,6.9,-,N/A,,Clear,210,2013-03-05 00:55:00
8:15 PM,37.4,32.0,81,30.14,10.0,SW,5.8,-,N/A,,Clear,220,2013-03-05 01:15:00
8:35 PM,37.4,32.0,81,30.14,10.0,SW,5.8,-,N/A,,Clear,220,2013-03-05 01:35:00
8:55 PM,37.4,33.8,87,30.14,7.0,SW,3.5,-,N/A,,Clear,220,2013-03-05 01:55:00
9:35 PM,35.6,32.0,87,30.15,7.0,SW,3.5,-,N/A,,Clear,220,2013-03-05 02:35:00
9:55 PM,37.4,33.8,87,30.14,10.0,SW,3.5,-,N/A,,Clear,220,2013-03-05 02:55:00
10:15 PM,37.4,33.8,87,30.14,10.0,SW,4.6,-,N/A,,Clear,230,2013-03-05 03:15:00
10:35 PM,35.6,33.8,93,30.14,10.0,SW,4.6,-,N/A,,Clear,220,2013-03-05 03:35:00
10:55 PM,35.6,33.8,93,30.14,10.0,SW,5.8,-,N/A,,Clear,230,2013-03-05 03:55:00